Location: Dehesa de la Cepeda
(40.6574°N, 4.3013°W)
Time: 04:20:35
(UTC+00:00)

Cosmos 2333 Rocket - Pass Details

Date: 05 July 2020
Orbit: 837 x 864 km, 70.8° (Epoch: 11 August)

Event Time Altitude Azimuth Distance (km) Brightness Sun altitude
Exits shadow 20:39:20 - 158° (SSE) 2,786 4.4 -8.3°
Reaches altitude 10° 20:40:25 10° 151° (SSE) 2,457 4.0 -8.4°
Maximum altitude 20:44:44 23° 101° (E) 1,725 3.3 -9.0°
Drops below altitude 10° 20:49:06 10° 51° (NE) 2,484 4.6 -9.7°
Sets 20:52:02 0° 37° (NE) 3,430 5.4 -10.1°
